Year,Month,Day,Hour,Minute,Value (Times are PST for temperature in C)
2011,04,17,10,52,6.60
2011,04,17,10,53,6.60
2011,04,17,10,54,6.60
2011,04,17,10,55,6.70
2011,04,17,10,56,6.70
2011,04,17,10,57,6.70
2011,04,17,10,58,6.80
2011,04,17,10,59,6.80
2011,04,17,11,00,6.80
2011,04,17,11,01,6.70
2011,04,17,11,02,6.70
2011,04,17,11,03,6.80
2011,04,17,11,04,6.80
2011,04,17,11,05,6.80
2011,04,17,11,06,6.80
2011,04,17,11,07,6.80
2011,04,17,11,08,6.70
2011,04,17,11,09,6.70
2011,04,17,11,10,6.70
2011,04,17,11,11,6.70
2011,04,17,11,12,6.80
2011,04,17,11,13,6.80
2011,04,17,11,14,6.70
2011,04,17,11,15,6.70
2011,04,17,11,16,6.70
2011,04,17,11,17,6.70
2011,04,17,11,18,6.80
2011,04,17,11,19,6.90
2011,04,17,11,20,6.90
2011,04,17,11,21,6.90
2011,04,17,11,22,6.90
2011,04,17,11,23,6.90
2011,04,17,11,24,6.90
2011,04,17,11,25,6.80
2011,04,17,11,26,6.80
2011,04,17,11,27,6.80
2011,04,17,11,28,6.70
2011,04,17,11,29,6.70
2011,04,17,11,30,6.70
2011,04,17,11,31,6.70
2011,04,17,11,32,6.70
2011,04,17,11,33,6.70
2011,04,17,11,34,6.60
2011,04,17,11,35,6.60
2011,04,17,11,36,6.70
2011,04,17,11,37,6.70
2011,04,17,11,38,6.80
2011,04,17,11,39,6.80
2011,04,17,11,40,6.80
2011,04,17,11,41,6.80
2011,04,17,11,42,6.80
2011,04,17,11,43,6.90
2011,04,17,11,44,6.90
2011,04,17,11,45,6.90
2011,04,17,11,46,6.90
2011,04,17,11,47,6.90
2011,04,17,11,48,6.80
2011,04,17,11,49,6.90
2011,04,17,11,50,7.00
2011,04,17,11,51,7.10
2011,04,17,11,52,7.20
2011,04,17,11,53,7.20
2011,04,17,11,54,7.20
2011,04,17,11,55,7.30
2011,04,17,11,56,7.30
2011,04,17,11,57,7.30
2011,04,17,11,58,7.20
2011,04,17,11,59,7.20
2011,04,17,12,00,7.20
2011,04,17,12,01,7.20
2011,04,17,12,02,7.10
2011,04,17,12,03,7.00
2011,04,17,12,04,7.00
2011,04,17,12,05,7.00
2011,04,17,12,06,7.00
2011,04,17,12,07,6.90
2011,04,17,12,08,6.90
2011,04,17,12,09,6.80
2011,04,17,12,10,6.90
2011,04,17,12,11,7.00
2011,04,17,12,12,7.00
2011,04,17,12,13,7.00
2011,04,17,12,14,7.00
2011,04,17,12,15,7.00
2011,04,17,12,16,7.00
2011,04,17,12,17,7.00
2011,04,17,12,18,7.10
2011,04,17,12,19,7.20
2011,04,17,12,20,7.20
2011,04,17,12,21,7.10
2011,04,17,12,22,7.10
2011,04,17,12,23,7.20
2011,04,17,12,24,7.20
2011,04,17,12,25,7.30
2011,04,17,12,26,7.30
2011,04,17,12,27,7.40
2011,04,17,12,28,7.30
2011,04,17,12,29,7.20
2011,04,17,12,30,7.20
2011,04,17,12,31,7.30
2011,04,17,12,32,7.40
2011,04,17,12,33,7.50
2011,04,17,12,34,7.50
2011,04,17,12,35,7.50
2011,04,17,12,36,7.50
2011,04,17,12,37,7.50
2011,04,17,12,38,7.40
2011,04,17,12,39,7.30
2011,04,17,12,40,7.20
2011,04,17,12,41,7.20
2011,04,17,12,42,7.20
2011,04,17,12,43,7.20
2011,04,17,12,44,7.10
2011,04,17,12,45,7.10
2011,04,17,12,46,7.10
2011,04,17,12,47,7.10
2011,04,17,12,48,7.20
2011,04,17,12,49,7.20
2011,04,17,12,50,7.20
2011,04,17,12,51,7.40
2011,04,17,12,52,7.50
2011,04,17,12,53,7.50
2011,04,17,12,54,7.50
2011,04,17,12,55,7.40
2011,04,17,12,56,7.40
2011,04,17,12,57,7.40
2011,04,17,12,58,7.40
2011,04,17,12,59,7.40
2011,04,17,13,00,7.30
2011,04,17,13,01,7.30
2011,04,17,13,02,7.30
2011,04,17,13,03,7.40
2011,04,17,13,04,7.40
2011,04,17,13,05,7.40
2011,04,17,13,06,7.40
2011,04,17,13,07,7.40
2011,04,17,13,08,7.30
2011,04,17,13,09,7.30
2011,04,17,13,10,7.30
2011,04,17,13,11,7.20
2011,04,17,13,12,7.20
2011,04,17,13,13,7.10
2011,04,17,13,14,7.20
2011,04,17,13,15,7.20
2011,04,17,13,16,7.20
2011,04,17,13,17,7.20
2011,04,17,13,18,7.40
2011,04,17,13,19,7.50
2011,04,17,13,20,7.50
2011,04,17,13,21,7.50
2011,04,17,13,22,7.40
2011,04,17,13,23,7.40
2011,04,17,13,24,7.40
2011,04,17,13,25,7.40
2011,04,17,13,26,7.40
2011,04,17,13,27,7.40
2011,04,17,13,28,7.40
2011,04,17,13,29,7.40
2011,04,17,13,30,7.50
2011,04,17,13,31,7.70
2011,04,17,13,32,7.80
2011,04,17,13,33,7.80
2011,04,17,13,34,7.80
2011,04,17,13,35,7.90
2011,04,17,13,36,7.90
2011,04,17,13,37,7.90
2011,04,17,13,38,7.90
2011,04,17,13,39,7.90
2011,04,17,13,40,7.80
2011,04,17,13,41,7.80
2011,04,17,13,42,7.80
2011,04,17,13,43,7.80
2011,04,17,13,44,7.80
2011,04,17,13,45,7.80
2011,04,17,13,46,7.80
2011,04,17,13,47,7.80
2011,04,17,13,48,7.80
2011,04,17,13,49,7.80
2011,04,17,13,50,7.80
2011,04,17,13,51,7.90
2011,04,17,13,52,8.00
2011,04,17,13,53,8.10
2011,04,17,13,54,8.20
2011,04,17,13,55,8.20
2011,04,17,13,56,8.10
2011,04,17,13,57,8.10
2011,04,17,13,58,8.20
2011,04,17,13,59,8.30
2011,04,17,14,00,8.30
2011,04,17,14,01,8.20
2011,04,17,14,02,8.10
2011,04,17,14,03,8.10
2011,04,17,14,04,8.20
2011,04,17,14,05,8.40
2011,04,17,14,06,8.60
2011,04,17,14,07,8.80
2011,04,17,14,08,8.80
2011,04,17,14,09,8.70
2011,04,17,14,10,8.70
2011,04,17,14,11,8.60
2011,04,17,14,12,8.60
2011,04,17,14,13,8.60
2011,04,17,14,14,8.60
2011,04,17,14,15,8.70
2011,04,17,14,16,8.70
2011,04,17,14,17,8.70
2011,04,17,14,18,8.80
2011,04,17,14,19,8.80
2011,04,17,14,20,8.80
2011,04,17,14,21,8.70
2011,04,17,14,22,8.40
2011,04,17,14,23,8.30
2011,04,17,14,24,8.20
2011,04,17,14,25,8.10
2011,04,17,14,26,8.10
2011,04,17,14,27,8.00
2011,04,17,14,28,8.00
2011,04,17,14,29,8.10
2011,04,17,14,30,8.20
2011,04,17,14,31,8.30
2011,04,17,14,32,8.40
2011,04,17,14,33,8.40
2011,04,17,14,34,8.50
2011,04,17,14,35,8.40
2011,04,17,14,36,8.30
2011,04,17,14,37,8.20
2011,04,17,14,38,8.10
2011,04,17,14,39,8.00
2011,04,17,14,40,8.00
2011,04,17,14,41,7.90
2011,04,17,14,42,8.00
2011,04,17,14,43,8.10
2011,04,17,14,44,8.20
2011,04,17,14,45,8.20
2011,04,17,14,46,8.20
2011,04,17,14,47,8.20
2011,04,17,14,48,8.20
2011,04,17,14,49,8.20
2011,04,17,14,50,8.20
2011,04,17,14,51,8.30
2011,04,17,14,52,8.30
2011,04,17,14,53,8.30
2011,04,17,14,54,8.30
2011,04,17,14,55,8.30
2011,04,17,14,56,8.30
2011,04,17,14,57,8.40
2011,04,17,14,58,8.40
2011,04,17,14,59,8.30
2011,04,17,15,00,8.30
2011,04,17,15,01,8.40
2011,04,17,15,02,8.50
2011,04,17,15,03,8.60
2011,04,17,15,04,8.60
2011,04,17,15,05,8.60
2011,04,17,15,06,8.50
2011,04,17,15,07,8.50
2011,04,17,15,08,8.50
2011,04,17,15,09,8.50
2011,04,17,15,10,8.60
2011,04,17,15,11,8.60
2011,04,17,15,12,8.50
2011,04,17,15,13,8.40
2011,04,17,15,14,8.50
2011,04,17,15,15,8.60
2011,04,17,15,16,8.60
2011,04,17,15,17,8.60
2011,04,17,15,18,8.70
2011,04,17,15,19,8.70
2011,04,17,15,20,8.70
2011,04,17,15,21,8.60
2011,04,17,15,22,8.60
2011,04,17,15,23,8.70
2011,04,17,15,24,8.80
2011,04,17,15,25,8.90
2011,04,17,15,26,8.90
2011,04,17,15,27,8.90
2011,04,17,15,28,8.90
2011,04,17,15,29,9.00
2011,04,17,15,30,9.00
2011,04,17,15,31,9.10
2011,04,17,15,32,9.10
2011,04,17,15,33,9.20
2011,04,17,15,34,9.20
2011,04,17,15,35,9.30
2011,04,17,15,36,9.30
2011,04,17,15,37,9.20
2011,04,17,15,38,9.10
2011,04,17,15,39,9.00
2011,04,17,15,40,9.00
2011,04,17,15,41,8.90
2011,04,17,15,42,9.00
2011,04,17,15,43,9.10
2011,04,17,15,44,9.10
2011,04,17,15,45,9.10
2011,04,17,15,46,9.20
2011,04,17,15,47,9.20
2011,04,17,15,48,9.20
2011,04,17,15,49,9.10
2011,04,17,15,50,9.10
2011,04,17,15,51,8.90
2011,04,17,15,52,8.80
2011,04,17,15,53,8.80
2011,04,17,15,54,8.80
2011,04,17,15,55,8.80
2011,04,17,15,56,8.90
2011,04,17,15,57,8.90
2011,04,17,15,58,8.90
2011,04,17,15,59,8.90
2011,04,17,16,00,8.90
2011,04,17,16,01,8.90
2011,04,17,16,02,8.90
2011,04,17,16,03,9.00
2011,04,17,16,04,9.00
2011,04,17,16,05,9.00
2011,04,17,16,06,9.00
2011,04,17,16,07,9.10
2011,04,17,16,08,9.20
2011,04,17,16,09,9.20
2011,04,17,16,10,9.10
2011,04,17,16,11,9.10
2011,04,17,16,12,9.10
2011,04,17,16,13,9.10
2011,04,17,16,14,9.00
2011,04,17,16,15,9.00
2011,04,17,16,16,9.00
2011,04,17,16,17,9.00
2011,04,17,16,18,9.00
2011,04,17,16,19,9.00
2011,04,17,16,20,9.00
2011,04,17,16,21,9.00
2011,04,17,16,22,9.00
2011,04,17,16,23,9.00
2011,04,17,16,24,9.10
2011,04,17,16,25,9.10
2011,04,17,16,26,9.20
2011,04,17,16,27,9.30
2011,04,17,16,28,9.30
2011,04,17,16,29,9.20
2011,04,17,16,30,9.10
2011,04,17,16,31,9.10
2011,04,17,16,32,9.10
2011,04,17,16,33,9.10
2011,04,17,16,34,9.10
2011,04,17,16,35,9.10
2011,04,17,16,36,9.20
2011,04,17,16,37,9.10
2011,04,17,16,38,9.00
2011,04,17,16,39,8.90
2011,04,17,16,40,9.00
2011,04,17,16,41,9.00
2011,04,17,16,42,9.10
2011,04,17,16,43,9.10
2011,04,17,16,44,9.10
2011,04,17,16,45,9.10
2011,04,17,16,46,9.10
2011,04,17,16,47,9.20
2011,04,17,16,48,9.20
2011,04,17,16,49,9.20
2011,04,17,16,50,9.20
2011,04,17,16,51,9.20
2011,04,17,16,52,9.20
2011,04,17,16,53,9.30
2011,04,17,16,54,9.30
2011,04,17,16,55,9.40
2011,04,17,16,56,9.40
2011,04,17,16,57,9.40
2011,04,17,16,58,9.50
2011,04,17,16,59,9.60
2011,04,17,17,00,9.60
2011,04,17,17,01,9.50
2011,04,17,17,02,9.40
2011,04,17,17,03,9.40
2011,04,17,17,04,9.40
2011,04,17,17,05,9.40
2011,04,17,17,06,9.40
2011,04,17,17,07,9.30
2011,04,17,17,08,9.30
2011,04,17,17,09,9.40
2011,04,17,17,10,9.60
2011,04,17,17,11,9.50
2011,04,17,17,12,9.50
2011,04,17,17,13,9.40
2011,04,17,17,14,9.40
2011,04,17,17,15,9.40
2011,04,17,17,16,9.40
2011,04,17,17,17,9.40
2011,04,17,17,18,9.50
2011,04,17,17,19,9.50
2011,04,17,17,20,9.60
2011,04,17,17,21,9.60
2011,04,17,17,22,9.60
2011,04,17,17,23,9.70
2011,04,17,17,24,9.60
2011,04,17,17,25,9.60
2011,04,17,17,26,9.60
2011,04,17,17,27,9.60
2011,04,17,17,28,9.60
2011,04,17,17,29,9.60
2011,04,17,17,30,9.60
2011,04,17,17,31,9.60
2011,04,17,17,32,9.60
2011,04,17,17,33,9.70
2011,04,17,17,34,9.80
2011,04,17,17,35,9.80
2011,04,17,17,36,9.80
2011,04,17,17,37,9.80
2011,04,17,17,38,9.80
2011,04,17,17,39,9.80
2011,04,17,17,40,9.70
2011,04,17,17,41,9.70
2011,04,17,17,42,9.70
2011,04,17,17,43,9.80
2011,04,17,17,44,9.80
2011,04,17,17,45,9.80
2011,04,17,17,46,9.80
2011,04,17,17,47,9.80
2011,04,17,17,48,9.70
2011,04,17,17,49,9.80
2011,04,17,17,50,9.80
2011,04,17,17,51,9.70
2011,04,17,17,52,9.70
2011,04,17,17,53,9.70
2011,04,17,17,54,9.60
2011,04,17,17,55,9.60
2011,04,17,17,56,9.60
2011,04,17,17,57,9.60
2011,04,17,17,58,9.70
2011,04,17,17,59,9.70
2011,04,17,18,00,9.70
2011,04,17,18,01,9.70
2011,04,17,18,02,9.60
2011,04,17,18,03,9.60
2011,04,17,18,04,9.50
2011,04,17,18,05,9.50
2011,04,17,18,06,9.60
2011,04,17,18,07,9.60
2011,04,17,18,08,9.60
2011,04,17,18,09,9.70
2011,04,17,18,10,9.80
2011,04,17,18,11,9.80
2011,04,17,18,12,9.80
2011,04,17,18,13,9.80
2011,04,17,18,14,9.80
2011,04,17,18,15,9.70
2011,04,17,18,16,9.70
2011,04,17,18,17,9.60
2011,04,17,18,18,9.50
2011,04,17,18,19,9.40
2011,04,17,18,20,9.40
2011,04,17,18,21,9.40
2011,04,17,18,22,9.50
2011,04,17,18,23,9.50
2011,04,17,18,24,9.60
2011,04,17,18,25,9.60
2011,04,17,18,26,9.60
2011,04,17,18,27,9.50
2011,04,17,18,28,9.50
2011,04,17,18,29,9.40
2011,04,17,18,30,9.30
2011,04,17,18,31,9.30
2011,04,17,18,32,9.20
2011,04,17,18,33,9.20
2011,04,17,18,34,9.20
2011,04,17,18,35,9.10
2011,04,17,18,36,9.10
2011,04,17,18,37,9.10
2011,04,17,18,38,9.10
2011,04,17,18,39,9.10
2011,04,17,18,40,9.00
2011,04,17,18,41,9.00
2011,04,17,18,42,8.90
2011,04,17,18,43,8.90
2011,04,17,18,44,8.90
2011,04,17,18,45,8.90
2011,04,17,18,46,8.80
2011,04,17,18,47,8.70
2011,04,17,18,48,8.70
2011,04,17,18,49,8.70
2011,04,17,18,50,8.70
2011,04,17,18,51,8.70
2011,04,17,18,52,8.70
2011,04,17,18,53,8.70
2011,04,17,18,54,8.60
2011,04,17,18,55,8.60
2011,04,17,18,56,8.60
2011,04,17,18,57,8.60
2011,04,17,18,58,8.60
2011,04,17,18,59,8.60
2011,04,17,19,00,8.60
2011,04,17,19,01,8.60
2011,04,17,19,02,8.50
2011,04,17,19,03,8.50
2011,04,17,19,04,8.50
2011,04,17,19,05,8.40
2011,04,17,19,06,8.40
2011,04,17,19,07,8.40
2011,04,17,19,08,8.40
2011,04,17,19,09,8.30
2011,04,17,19,10,8.30
2011,04,17,19,11,8.20
2011,04,17,19,12,8.20
2011,04,17,19,13,8.20
2011,04,17,19,14,8.10
2011,04,17,19,15,8.10
2011,04,17,19,16,8.10
2011,04,17,19,17,8.10
2011,04,17,19,18,8.00
2011,04,17,19,19,8.00
2011,04,17,19,20,8.00
2011,04,17,19,21,7.90
2011,04,17,19,22,7.90
2011,04,17,19,23,7.90
2011,04,17,19,24,7.90
2011,04,17,19,25,7.80
2011,04,17,19,26,7.80
2011,04,17,19,27,7.80
2011,04,17,19,28,7.80
2011,04,17,19,29,7.70
2011,04,17,19,30,7.70
2011,04,17,19,31,7.60
2011,04,17,19,32,7.60
2011,04,17,19,33,7.60
2011,04,17,19,34,7.60
2011,04,17,19,35,7.60
2011,04,17,19,36,7.60
2011,04,17,19,37,7.60
2011,04,17,19,38,7.60
2011,04,17,19,39,7.50
2011,04,17,19,40,7.50
2011,04,17,19,41,7.40
2011,04,17,19,42,7.40
2011,04,17,19,43,7.40
2011,04,17,19,44,7.30
2011,04,17,19,45,7.30
2011,04,17,19,46,7.30
2011,04,17,19,47,7.20
2011,04,17,19,48,7.20
2011,04,17,19,49,7.10
2011,04,17,19,50,7.00
2011,04,17,19,51,6.90
2011,04,17,19,52,6.80
2011,04,17,19,53,6.70
2011,04,17,19,54,6.60
2011,04,17,19,55,6.50
2011,04,17,19,56,6.50
2011,04,17,19,57,6.40
2011,04,17,19,58,6.30
2011,04,17,19,59,6.20
2011,04,17,20,00,6.10
2011,04,17,20,01,6.10
2011,04,17,20,02,6.00
2011,04,17,20,03,6.00
2011,04,17,20,04,5.90
2011,04,17,20,05,5.90
2011,04,17,20,06,5.90
2011,04,17,20,07,5.80
2011,04,17,20,08,5.80
2011,04,17,20,09,5.80
2011,04,17,20,10,5.80
2011,04,17,20,11,5.70
2011,04,17,20,12,5.70
2011,04,17,20,13,5.70
2011,04,17,20,14,5.70
2011,04,17,20,15,5.70
2011,04,17,20,16,5.60
2011,04,17,20,17,5.60
2011,04,17,20,18,5.60
2011,04,17,20,19,5.60
2011,04,17,20,20,5.50
2011,04,17,20,21,5.50
2011,04,17,20,22,5.50
2011,04,17,20,23,5.50
2011,04,17,20,24,5.50
2011,04,17,20,25,5.50
2011,04,17,20,26,5.50
2011,04,17,20,27,5.40
2011,04,17,20,28,5.40
2011,04,17,20,29,5.40
2011,04,17,20,30,5.40
2011,04,17,20,31,5.40
2011,04,17,20,32,5.40
2011,04,17,20,33,5.40
2011,04,17,20,34,5.40
2011,04,17,20,35,5.30
2011,04,17,20,36,5.30
2011,04,17,20,37,5.30
2011,04,17,20,38,5.30
2011,04,17,20,39,5.30
2011,04,17,20,40,5.30
2011,04,17,20,41,5.20
2011,04,17,20,42,5.20
2011,04,17,20,43,5.20
2011,04,17,20,44,5.20
2011,04,17,20,45,5.20
2011,04,17,20,46,5.20
2011,04,17,20,47,5.20
2011,04,17,20,48,5.20
2011,04,17,20,49,5.20
2011,04,17,20,50,5.20
2011,04,17,20,51,5.20
2011,04,17,20,52,5.20
2011,04,17,20,53,5.20
2011,04,17,20,54,5.20
2011,04,17,20,55,5.20
2011,04,17,20,56,5.20
2011,04,17,20,57,5.20
2011,04,17,20,58,5.20
2011,04,17,20,59,5.20
2011,04,17,21,00,5.20
2011,04,17,21,01,5.20
2011,04,17,21,02,5.20
2011,04,17,21,03,5.20
